COSMOS 1864

导读 | 星芒AI

COSMOS 1864 是一颗由苏联发射的军用通信卫星,于1987年10月23日由质子-K火箭送入轨道。该卫星属于“天线”(Antey)系列,主要用于支持军事通信和指挥系统。其具体轨道参数和任务细节未公开,但据推测运行在中地球轨道。COSMOS 1864 体现了冷战时期苏联在空间通信技术上的发展,是其军事航天计划的重要组成部分。

基本信息
目录编号:
18160
目录名称:
COSMOS 1864
国际标识:
1987-057A
轨道中心:
EARTH
卫星名称:
COSMOS 1864
卫星全名:
--
卫星状态:
在轨 (已飞行14042 天)
发射日期:
1987-07-06 UTC
国别 :
俄罗斯(独联体) (CIS)
星等 :
--
轨道信息
数据来源 国际轨道数据
星历时间: 2025-12-14T15:05:31+0800
1天前
查看轨道信息
半长轴: 7356.969km
偏心率: 0.0031794
轨道倾角: 82.933°
近地点辐角 353.195°
升交点赤经 303.480°
平近点角 118.557°
近地点: 955.443km
远地点: 1002.225km
周期: 104.667分钟
每日圈数: 13.757973
详细信息
使用方式:
暂无
2D轨道图
3D轨道图
轨道高度分析图
轨道倾角分析图
轨道综合分析图
查看轨道综合分析图